Fargo, ND

2:47 AM CDT on October 24, 2017 (GMT -0500)
Hector International

Weather History for KFAR - March, 2012

Change the Weather History Date:

Friday, March 2, 2012

  Actual Average Record
Temperature  
Mean Temperature 24 °F 21 °F  
Max Temperature 30 °F 29 °F 56 °F (1905)
Min Temperature 18 °F 13 °F -24 °F (1916)
Degree Days  
Heating Degree Days 41 44  
Month to date heating degree days 77 89  
Since 1 July heating degree days 5504 6767  
Cooling Degree Days 0 0  
Month to date cooling degree days 0 0  
Year to date cooling degree days 0 0  
Moisture  
Dew Point 18 °F    
Average Humidity 78    
Maximum Humidity 88    
Minimum Humidity 68    
Precipitation  
Precipitation T in 0.04 in 0.67 in (1966)
Month to date precipitation 0.01 0.08  
Year to date precipitation 1.54 1.39  
Snow  
Snow 0.30 in 0.30 in 6.40 in (1966)
Month to date snowfall 0.6 0.7  
Since 1 July snowfall 25.0 38.7  
Snow Depth 8.00 in    
Sea Level Pressure  
Sea Level Pressure 29.65 in    
Wind  
Wind Speed 15 mph (NW)    
Max Wind Speed 32 mph    
Max Gust Speed 38 mph    
Visibility 4 miles    
Events Fog , Snow    
T = Trace of Precipitation, MM = Missing Value Source: NWS Daily Summary

Daily Weather History Graph

Daily Weather History Graph

Search for Another Location

Airport or City:

Trip Planner

Search our weather history database for the weather conditions in past years. The results will help you decide how hot, cold, wet, or windy it might be!

Date:

Astronomy

Mar. 02, 2012 Rise Set
Actual Time 7:04 AM CST 6:15 PM CST
Civil Twilight 6:33 AM CST 6:45 PM CST
Nautical Twilight 5:58 AM CST 7:20 PM CST
Astronomical Twilight 5:23 AM CST 7:56 PM CST
Moon 12:10 PM CST (3/2) 3:12 AM CST (3/2)
Length of Visible Light 12h 11m
Length of Day
11h 10m
Waxing Gibbous, 66% of the Moon is Illuminated
Mar 2
Waxing Gibbous
Mar 8
Full
Mar 14
Last Quarter
Mar 22
New
Mar 30
First Quarter

Hourly Weather History & Observations

Time (CST) Temp. Windchill Dew Point Humidity Pressure Visibility Wind Dir Wind Speed Gust Speed Precip Events Conditions
12:53 AM 23.0 °F 11.1 °F 17.1 °F 78% 29.68 in 10.0 mi South 12.7 mph - N/A   Clear
1:53 AM 23.0 °F 12.4 °F 16.0 °F 74% 29.68 in 10.0 mi SSW 10.4 mph - N/A   Mostly Cloudy
2:53 AM 24.1 °F 17.0 °F 17.1 °F 75% 29.67 in 10.0 mi SSW 5.8 mph - N/A   Overcast
3:53 AM 21.0 °F 10.6 °F 15.1 °F 78% 29.67 in 10.0 mi SSW 9.2 mph - N/A   Scattered Clouds
4:53 AM 24.1 °F 13.1 °F 16.0 °F 71% 29.66 in 10.0 mi SW 11.5 mph - N/A   Overcast
5:53 AM 23.0 °F 11.7 °F 16.0 °F 74% 29.65 in 10.0 mi SW 11.5 mph - N/A   Overcast
6:53 AM 23.0 °F 11.1 °F 15.1 °F 72% 29.63 in 10.0 mi SW 12.7 mph - N/A   Overcast
7:53 AM 24.1 °F 12.5 °F 16.0 °F 71% 29.62 in 10.0 mi SW 12.7 mph - N/A   Overcast
8:53 AM 24.1 °F 11.5 °F 16.0 °F 71% 29.62 in 10.0 mi WSW 15.0 mph - N/A   Overcast
9:53 AM 25.0 °F 12.6 °F 18.0 °F 75% 29.61 in 5.0 mi SW 15.0 mph - 0.00 in Snow Light Snow
10:45 AM 26.6 °F 15.2 °F 19.4 °F 74% 29.56 in 6.0 mi WSW 13.8 mph - 0.00 in   Haze
10:53 AM 27.0 °F 16.7 °F 19.0 °F 72% 29.60 in 7.0 mi SW 11.5 mph - 0.00 in   Mostly Cloudy
11:07 AM 26.6 °F 16.8 °F 19.4 °F 74% 29.56 in 7.0 mi WSW 10.4 mph - N/A   Scattered Clouds
11:32 AM 26.6 °F 18.2 °F 19.4 °F 74% 29.56 in 8.0 mi SW 8.1 mph - N/A   Overcast
11:53 AM 28.0 °F 20.8 °F 21.0 °F 75% 29.60 in 8.0 mi SW 6.9 mph - N/A   Overcast
12:38 PM 28.4 °F 22.2 °F 21.2 °F 74% 29.55 in 3.0 mi WNW 5.8 mph - 0.00 in Snow Light Snow
12:53 PM 30.0 °F 23.2 °F 21.9 °F 72% 29.60 in 2.5 mi WNW 6.9 mph - 0.00 in Snow Light Snow
1:06 PM 30.2 °F 23.4 °F 21.2 °F 69% 29.56 in 4.0 mi WNW 6.9 mph - 0.00 in Snow Light Snow
1:20 PM 28.4 °F 20.4 °F 23.0 °F 80% 29.56 in 2.0 mi NW 8.1 mph - 0.00 in Snow Light Snow
1:30 PM 28.4 °F 19.7 °F 21.2 °F 74% 29.56 in 1.8 mi WNW 9.2 mph - 0.00 in Snow Light Snow
1:39 PM 28.4 °F 19.1 °F 23.0 °F 80% 29.55 in 2.0 mi NW 10.4 mph - 0.00 in Snow Light Snow
1:53 PM 28.9 °F 19.8 °F 23.0 °F 78% 29.60 in 2.0 mi NW 10.4 mph - 0.00 in Snow Light Snow
2:19 PM 28.4 °F 19.1 °F 21.2 °F 74% 29.56 in 2.5 mi NW 10.4 mph - 0.00 in Snow Light Snow
2:28 PM 28.4 °F 17.5 °F 21.2 °F 74% 29.56 in 2.5 mi NNW 13.8 mph - 0.00 in Snow Light Snow
2:50 PM 28.4 °F 18.0 °F 23.0 °F 80% 29.57 in 1.8 mi NW 12.7 mph - 0.00 in Snow Light Snow
2:53 PM 28.9 °F 19.2 °F 21.9 °F 75% 29.61 in 2.0 mi NW 11.5 mph - 0.00 in Snow Light Snow
3:09 PM 28.4 °F 19.1 °F 23.0 °F 80% 29.57 in 5.0 mi NNW 10.4 mph - 0.00 in Snow Light Snow
3:21 PM 28.4 °F 18.5 °F 23.0 °F 80% 29.57 in 2.0 mi NW 11.5 mph - 0.00 in Snow Light Snow
3:33 PM 28.4 °F 18.5 °F 23.0 °F 80% 29.58 in 4.0 mi NW 11.5 mph - 0.00 in Snow Light Snow
3:48 PM 28.4 °F 19.1 °F 23.0 °F 80% 29.58 in 2.5 mi NNW 10.4 mph - 0.00 in Snow Light Snow
3:53 PM 28.9 °F 19.2 °F 24.1 °F 82% 29.63 in 2.0 mi NW 11.5 mph - 0.00 in Snow Light Snow
4:01 PM 28.4 °F 17.5 °F 24.8 °F 86% 29.59 in 1.5 mi NW 13.8 mph - 0.00 in Snow Light Snow
4:10 PM 28.4 °F 17.0 °F 24.8 °F 86% 29.59 in 2.0 mi NW 15.0 mph - 0.00 in Snow Light Snow
4:19 PM 28.4 °F 15.8 °F 24.8 °F 86% 29.59 in 1.2 mi NW 18.4 mph - 0.00 in Snow Light Snow
4:42 PM 28.4 °F 15.1 °F 23.0 °F 80% 29.61 in 1.2 mi NNW 20.7 mph 28.8 mph 0.00 in Snow Light Snow
4:53 PM 28.0 °F 13.6 °F 23.0 °F 81% 29.66 in 1.5 mi NW 24.2 mph - 0.00 in Snow Light Snow
5:01 PM 26.6 °F 10.8 °F 21.2 °F 80% 29.62 in 2.5 mi NNW 27.6 mph 33.4 mph 0.00 in Snow Light Snow
5:06 PM 26.6 °F 10.3 °F 21.2 °F 80% 29.63 in 2.5 mi NW 29.9 mph 33.4 mph 0.00 in Snow Light Snow
5:20 PM 26.6 °F 11.1 °F 19.4 °F 74% 29.63 in 1.2 mi NNW 26.5 mph 31.1 mph 0.00 in Snow Light Snow
5:34 PM 24.8 °F 8.4 °F 19.4 °F 80% 29.64 in 0.8 mi NW 27.6 mph 34.5 mph 0.00 in Snow Light Snow
5:53 PM 23.0 °F 6.3 °F 19.0 °F 85% 29.70 in 0.5 mi NNW 26.5 mph 34.5 mph 0.00 in Fog , Snow Snow
6:11 PM 23.0 °F 6.9 °F 17.6 °F 80% 29.66 in 1.0 mi NW 24.2 mph 28.8 mph 0.00 in Snow Light Snow
6:53 PM 21.9 °F 5.5 °F 16.0 °F 78% 29.73 in 1.5 mi NNW 24.2 mph 34.5 mph 0.00 in Snow Light Snow
7:01 PM 21.2 °F 5.2 °F 15.8 °F 80% 29.68 in 3.0 mi NNW 21.9 mph - 0.00 in Snow Light Snow
7:11 PM 21.2 °F 3.5 °F 15.8 °F 80% 29.69 in 2.0 mi NNW 27.6 mph 33.4 mph 0.00 in Snow Light Snow
7:19 PM 21.2 °F 3.9 °F 15.8 °F 80% 29.69 in 1.2 mi NNW 26.5 mph - 0.00 in Snow Light Snow
7:53 PM 21.0 °F 2.4 °F 16.0 °F 81% 29.74 in 1.0 mi NNW 31.1 mph 38.0 mph 0.00 in Snow Light Snow
8:02 PM 19.4 °F 2.1 °F 15.8 °F 86% 29.70 in 0.8 mi NNW 24.2 mph 36.8 mph 0.00 in Snow Light Snow
8:10 PM 19.4 °F 3.6 °F 15.8 °F 86% 29.70 in 1.2 mi NNW 19.6 mph - 0.00 in Snow Light Snow
8:18 PM 19.4 °F 1.4 °F 15.8 °F 86% 29.70 in 0.8 mi NNW 26.5 mph 32.2 mph 0.00 in Snow Light Snow
8:50 PM 19.4 °F 2.1 °F 12.2 °F 74% 29.71 in 1.5 mi NNW 24.2 mph - 0.00 in Snow Light Snow
8:53 PM 19.0 °F 2.4 °F 12.9 °F 77% 29.76 in 2.0 mi NNW 21.9 mph 32.2 mph 0.00 in Snow Light Snow
9:19 PM 19.4 °F 2.1 °F 14.0 °F 80% 29.72 in 1.0 mi NNW 24.2 mph 29.9 mph 0.00 in Snow Light Snow
9:53 PM 19.0 °F 1.6 °F 14.0 °F 81% 29.77 in 1.0 mi NNW 24.2 mph 29.9 mph 0.00 in Snow Light Snow
10:08 PM 17.6 °F 0.9 °F 12.2 °F 79% 29.73 in 2.5 mi NNW 20.7 mph 29.9 mph 0.00 in Snow Light Snow
10:21 PM 17.6 °F -0.3 °F 12.2 °F 79% 29.73 in 1.8 mi NNW 24.2 mph 31.1 mph 0.00 in Snow Light Snow
10:34 PM 17.6 °F 2.2 °F 12.2 °F 79% 29.73 in 3.0 mi NNW 17.3 mph - 0.00 in Snow Light Snow
10:42 PM 17.6 °F 1.7 °F 12.2 °F 79% 29.73 in 2.0 mi NNW 18.4 mph - 0.00 in Snow Light Snow
10:53 PM 18.0 °F 1.3 °F 12.9 °F 81% 29.78 in 2.0 mi NNW 20.7 mph - 0.00 in Snow Light Snow
11:01 PM 17.6 °F 0.1 °F 12.2 °F 79% 29.74 in 1.2 mi NNW 23.0 mph 28.8 mph 0.00 in Snow Light Snow
11:51 PM 17.6 °F 0.5 °F 12.2 °F 79% 29.74 in 2.5 mi NNW 21.9 mph - 0.00 in Snow Light Snow
11:53 PM 18.0 °F 2.2 °F 12.0 °F 78% 29.79 in 2.0 mi NW 18.4 mph - 0.00 in Snow Light Snow